Location: ??????
(55.6500°N, 37.8000°E)
Time: 05:33:35
(UTC+00:00)

Meteor 2-10 - Pass Details

Date: 14 April 2024
Orbit: 738 x 866 km, 81.2° (Epoch: 23 May)

Event Time Altitude Azimuth Distance (km) Brightness Sun altitude
Rises 00:26:17 0° 344° (NNW) 3,369 7.7 -15.2°
Reaches altitude 10° 00:28:40 10° 343° (NNW) 2,450 7.0 -14.9°
Maximum altitude 00:34:14 78° 259° (WSW) 873 4.1 -14.4°
Drops below altitude 10° 00:39:55 10° 174° (S) 2,495 6.3 -13.8°
Sets 00:42:21 0° 173° (S) 3,435 7.0 -13.5°
